Temperature
22 23 23 22 23 23 22 22 22 22 22 21 21 21 21 20 20 19 19 19 18 18 17 17 17 16 16 16 16 16 16 16 16 16 15 15 15 15 15 15 15 15 15 15
23 22 22 22 22 22 22 22 22 21 21 21 21 21 21 21 20 19 19 19 18 18 17 16 16 16 16 16 16 16 16 16 16 15 15 15 15 15 15 15 15 15 15 15
22 22 22 22 21 21 22 21 21 21 21 21 21 21 21 21 20 19 18 18 18 17 17 16 16 16 16 16 16 16 16 15 15 15 15 15 15 15 15 15 15 15 15 15
22 21 21 21 21 21 21 21 21 21 21 21 21 21 21 21 20 19 19 18 17 17 16 16 16 16 16 16 15 15 15 15 15 15 15 15 14 14 14 14 14 14 14 14
21 21 21 21 21 21 21 20 21 21 21 21 21 21 22 21 20 20 19 18 17 17 16 16 15 15 15 15 15 15 15 15 15 15 15 14 14 14 14 14 14 14 14 14
21 21 21 21 20 20 20 21 21 21 21 20 21 20 21 21 20 20 19 18 17 16 16 15 15 15 15 15 15 15 15 15 15 14 14 14 14 14 14 14 14 14 14 14
21 21 20 20 20 20 21 21 21 21 20 21 20 20 20 20 20 19 19 18 17 16 15 15 15 14 14 15 15 14 14 14 14 14 14 14 14 13 13 13 13 13 13 13
21 20 20 20 21 21 21 21 20 20 20 21 20 20 20 19 18 18 18 17 16 16 15 14 14 14 14 14 14 14 14 14 14 14 14 13 13 13 13 13 13 13 13 13
20 20 20 19 20 21 20 21 21 20 20 20 21 21 20 19 18 18 17 17 16 15 14 14 14 14 13 14 14 14 13 13 13 13 13 13 13 13 13 13 12 12 12 12
20 20 19 19 19 19 20 20 20 20 19 19 20 20 20 19 18 18 17 16 15 15 14 14 13 13 13 13 13 13 13 13 13 13 13 13 13 12 12 12 12 12 12 12
20 20 19 19 19 20 19 19 20 20 20 19 19 20 20 19 18 18 17 16 15 14 13 13 13 12 12 12 13 13 13 13 13 12 12 12 12 12 12 12 12 12 11 11
19 19 19 19 19 18 19 19 19 19 19 19 19 20 19 18 18 17 16 15 14 13 13 12 12 12 12 12 12 12 12 12 12 12 12 12 12 11 11 11 11 11 11 11
18 19 19 19 18 18 18 18 18 19 19 19 18 19 18 18 17 16 15 14 13 13 12 12 12 11 11 11 11 11 12 12 12 12 12 11 11 11 11 11 11 11 10 10
17 19 19 19 19 18 18 17 17 18 18 18 19 19 18 17 17 16 15 14 13 12 12 11 11 11 11 11 11 11 11 11 11 11 11 11 11 11 10 10 10 10 10 10
18 18 18 18 17 17 17 17 17 17 18 18 18 18 18 17 16 15 14 13 13 12 11 11 10 10 10 10 10 10 10 11 11 10 11 11 10 10 10 10 10 10 10 9
17 17 17 17 16 16 16 17 17 17 17 17 17 17 17 16 15 14 14 13 13 12 11 10 10 10 10 10 10 10 10 10 10 10 10 10 10 10 10 10 10 9 9 9
16 17 17 17 16 16 16 17 17 16 16 16 16 17 16 15 15 14 13 13 12 12 10 10 9 9 9 10 10 9 9 10 10 10 10 9 9 9 9 9 9 9 9 9
16 16 16 16 16 15 17 16 16 16 16 16 16 16 15 14 14 13 12 12 11 11 10 9 9 9 9 9 9 9 9 9 9 9 9 9 9 9 9 9 8 8 8 8
15 16 16 16 16 16 16 15 15 15 15 15 15 15 14 13 13 13 12 11 11 10 10 9 9 8 9 9 8 9 9 8 8 8 8 8 8 8 8 8 8 8 8 7
14 15 15 15 15 15 16 15 14 15 15 15 14 14 13 13 14 14 11 10 10 10 9 9 8 8 8 8 8 8 8 8 8 8 8 8 8 7 7 7 7 7 7 7
14 14 15 15 15 16 15 13 14 14 15 14 13 13 13 13 13 11 10 9 9 9 9 9 8 8 7 7 7 7 7 7 7 7 7 7 7 7 7 7 7 7 6 6
15 15 14 15 14 15 13 13 14 14 13 12 12 12 12 11 10 10 9 9 9 9 8 8 8 7 7 7 7 7 7 7 7 7 7 7 6 6 6 6 6 6 6 6
14 15 15 15 15 14 12 13 12 12 12 12 11 11 10 10 9 9 9 8 8 8 8 8 7 7 7 7 6 6 6 6 6 6 6 6 6 6 6 6 5 5 5 5
13 12 13 13 14 13 11 11 11 11 11 10 10 10 10 9 9 8 8 8 8 8 7 7 7 6 6 6 6 6 6 6 6 6 6 5 5 5 5 5 5 5 5 4
13 12 12 13 13 12 11 10 10 10 10 10 9 9 9 8 8 8 8 7 7 7 7 7 6 6 6 6 6 5 5 5 5 5 5 5 5 5 4 4 4 4 4 4
12 12 12 13 12 12 12 10 9 9 9 9 9 8 8 8 8 7 7 7 7 6 6 6 6 6 6 5 5 5 5 5 5 5 4 4 4 4 4 4 4 3 3 3
Wind_Speed
3 4 3 3 2 2 3 3 4 2 1 3 5 5 4 4 4 4 4 4 4 3 2 1 2 2 3 3 2 2 2 1 1 1 0 0 1 1 1 2 3 3 3 3
5 3 2 2 3 4 4 5 4 2 1 3 4 5 4 3 4 4 4 3 4 3 2 2 2 2 3 3 3 3 2 1 1 1 1 1 0 0 1 1 2 3 3 3
4 2 2 3 4 4 4 5 5 3 2 4 4 5 5 4 3 3 3 3 3 3 4 3 3 2 2 3 3 3 2 2 1 1 1 1 1 0 1 1 1 2 3 3
2 2 3 4 3 4 4 3 5 5 5 4 4 5 4 4 3 2 2 3 3 3 4 3 3 3 3 3 3 3 3 2 2 2 1 1 0 0 1 1 1 2 2 2
3 3 3 4 3 4 2 2 4 5 6 6 6 6 3 3 3 3 2 2 3 3 3 3 3 3 2 2 2 2 2 2 2 2 2 1 0 1 1 1 2 2 2 2
2 2 2 1 0 2 2 3 3 4 5 7 5 6 4 2 3 3 2 2 1 1 1 2 1 2 2 2 2 2 2 2 2 2 2 2 1 1 1 1 2 1 1 2
4 3 2 2 2 3 4 4 4 4 5 4 2 5 4 1 2 2 2 1 0 0 0 1 1 2 2 2 2 2 2 3 3 3 2 2 2 1 1 1 1 1 1 1
5 4 3 2 3 4 5 6 5 4 4 4 4 5 1 1 1 2 1 1 0 1 0 0 1 2 2 2 1 2 2 3 3 3 2 2 2 1 1 1 1 1 1 2
3 3 2 0 2 3 4 5 4 6 6 6 5 4 3 1 1 1 1 1 1 1 0 0 0 2 2 2 2 2 2 3 3 3 2 2 2 1 1 1 1 1 2 2
3 3 2 1 2 0 3 3 4 5 5 6 6 6 3 2 1 1 1 0 1 2 1 1 1 1 1 2 2 2 2 2 2 2 2 2 2 2 1 1 1 1 1 2
4 4 3 4 5 5 3 4 4 5 6 6 6 3 1 0 0 1 1 1 1 1 2 2 1 1 0 1 1 1 1 1 1 2 2 2 2 1 1 1 1 1 1 1
3 4 5 5 2 3 5 6 6 6 6 6 7 4 3 1 0 1 1 1 1 1 1 1 2 1 1 0 0 1 1 1 1 1 2 2 2 2 2 1 1 1 1 1
3 4 5 4 4 4 4 5 6 7 7 8 8 4 3 1 1 1 1 1 1 1 1 1 1 1 1 1 0 1 1 1 1 1 2 1 1 2 2 1 1 1 1 0
4 6 7 7 5 3 6 6 7 8 8 10 11 10 6 4 4 3 2 1 0 0 0 1 1 1 1 1 1 1 1 1 1 1 2 2 2 2 1 1 1 1 0 0
4 7 8 8 7 7 9 9 10 12 12 12 11 11 9 6 5 4 3 2 1 0 1 1 1 2 1 1 2 2 2 2 1 1 2 2 1 1 1 1 0 0 0 1
4 5 6 7 6 7 10 11 11 12 12 13 13 12 7 5 4 4 3 3 2 1 2 2 2 2 2 2 2 2 2 2 2 2 2 1 1 1 1 1 1 0 0 1
4 5 6 7 5 6 9 8 9 8 8 9 11 9 5 5 4 4 3 3 3 2 2 2 3 3 3 3 3 3 2 2 2 2 2 2 1 1 1 1 1 1 1 0
7 7 5 5 5 9 3 1 4 7 8 8 8 7 6 5 5 3 3 3 3 2 2 2 2 3 3 3 3 3 2 1 2 2 2 2 1 1 1 1 1 1 1 1
8 7 5 5 7 8 4 3 3 5 6 5 6 5 4 3 3 3 1 2 2 2 2 2 2 2 2 2 3 2 2 2 2 2 2 2 2 2 2 2 2 1 1 1
5 8 7 7 7 7 2 2 1 4 6 1 3 4 4 3 4 2 1 1 1 2 1 1 1 2 2 2 2 2 2 2 2 2 2 2 2 2 2 2 1 1 1 1
6 6 10 11 10 7 1 2 3 5 2 2 3 4 4 5 4 1 0 1 1 1 1 0 1 1 1 2 2 1 2 3 3 3 2 2 2 2 2 1 1 1 0 1
6 6 7 8 8 6 3 4 4 3 3 2 3 3 3 3 2 1 1 1 1 1 0 0 1 1 1 2 2 2 2 3 2 2 1 1 1 0 0 1 0 1 1 1
6 5 4 6 4 2 2 3 3 3 3 3 3 3 2 1 2 2 1 1 1 1 1 1 1 1 1 2 2 2 2 2 2 1 1 1 1 1 0 1 1 1 1 0
4 3 5 6 6 5 4 4 3 3 4 3 2 2 1 2 2 2 2 2 2 2 2 1 1 1 1 2 2 2 2 1 1 1 1 1 1 1 1 0 1 1 0 0
5 4 6 8 7 5 5 4 3 4 3 2 1 1 2 2 3 2 2 2 2 2 2 2 2 2 1 1 2 2 1 1 1 1 1 1 1 1 1 1 1 0 1 1
7 7 7 8 6 6 6 5 5 5 4 3 2 2 2 2 3 2 2 2 2 2 2 2 2 2 1 1 2 2 1 1 1 1 1 0 0 0 0 1 1 3 2 3
Wind_Direction
144 174 176 177 206 214 185 213 226 237 208 232 237 250 245 223 222 226 224 219 217 213 213 207 199 183 168 164 163 140 137 136 136 148 168 140 47 40 44 35 28 20 11 16
171 176 170 163 171 194 206 223 234 221 193 251 253 262 256 224 217 229 235 232 231 216 200 199 204 194 185 180 179 168 164 164 153 203 200 193 175 33 43 26 24 12 4 6
197 142 152 176 177 199 221 241 247 251 262 228 256 251 227 207 213 224 241 246 243 233 222 212 208 203 196 192 191 183 175 171 172 172 176 145 126 91 53 4 3 359 355 356
178 169 174 189 206 242 241 258 253 241 248 256 256 270 237 224 215 231 242 246 245 239 233 223 212 208 213 207 197 190 178 173 164 155 144 146 183 257 322 324 334 343 352 351
182 176 192 210 231 243 272 289 238 241 253 261 247 260 254 209 238 261 265 263 252 240 227 220 216 209 208 198 187 191 177 164 155 151 145 171 230 282 303 320 335 332 339 341
179 182 225 242 1 200 182 191 197 219 241 251 246 250 259 228 267 289 283 273 252 234 221 226 214 195 182 161 164 174 176 165 161 167 175 183 207 261 319 329 329 319 327 322
193 186 180 186 175 180 223 241 239 229 229 244 228 250 257 349 334 301 297 297 336 112 148 201 200 192 173 154 167 175 181 179 171 178 195 202 212 238 256 289 302 315 320 318
216 205 182 208 234 232 229 247 260 268 261 261 234 242 218 71 358 336 316 301 23 59 78 170 199 191 175 160 172 186 191 195 185 187 200 215 220 233 264 278 287 295 307 311
227 208 153 222 286 246 226 237 271 272 269 266 239 226 217 117 5 1 348 344 5 11 47 76 198 183 177 185 198 212 202 199 196 195 199 209 217 225 252 274 291 306 314 324
250 238 196 173 187 103 279 237 226 243 257 258 251 247 242 205 277 287 274 340 33 32 19 34 53 147 173 197 212 228 228 211 203 201 196 200 210 222 243 247 291 323 344 355
248 240 213 208 225 232 200 213 237 248 259 267 269 254 90 341 314 283 285 291 351 5 12 17 29 14 180 170 188 219 220 218 206 204 201 198 198 217 214 227 259 297 326 339
234 247 240 235 240 278 244 241 237 252 251 255 270 267 102 83 342 292 292 310 349 12 25 25 28 31 40 99 172 229 218 214 225 210 200 209 199 202 211 213 236 280 306 336
201 231 240 219 194 195 225 230 241 258 259 249 257 258 127 37 339 298 294 316 11 30 52 41 27 25 12 1 304 261 265 254 233 218 197 202 210 211 216 222 236 258 292 340
229 235 246 259 287 259 246 239 236 242 249 254 252 266 268 283 291 294 294 291 306 333 66 30 360 347 354 340 316 286 292 281 243 215 199 202 220 228 231 219 231 243 256 288
231 242 247 264 276 266 263 252 236 239 250 259 267 268 278 283 280 276 272 267 271 318 348 343 326 320 327 331 327 307 300 283 253 236 213 215 225 228 228 204 208 207 238 253
240 242 247 252 251 260 262 258 247 245 251 256 267 271 280 288 273 262 251 249 250 260 280 297 310 321 328 325 321 309 300 272 243 237 230 224 227 223 222 219 209 197 253 273
217 229 244 251 256 270 255 249 240 239 241 249 257 267 273 274 267 260 256 246 253 266 277 280 293 309 318 317 313 306 294 276 247 249 244 223 220 223 227 214 196 209 233 259
224 229 240 254 249 248 251 85 249 250 252 253 265 269 267 271 279 264 252 244 259 277 285 286 288 295 308 318 312 305 296 280 258 256 255 237 225 229 223 220 231 245 249 238
224 222 229 238 253 264 250 226 226 248 257 263 260 262 272 291 268 241 201 229 270 290 299 291 291 296 306 319 318 306 311 303 284 266 252 245 228 221 216 221 228 234 247 252
199 221 229 234 249 257 253 141 204 253 250 246 255 261 267 248 260 269 132 269 298 319 314 304 291 294 312 328 321 308 316 319 317 304 273 252 240 230 229 230 229 244 243 246
189 209 225 237 246 257 277 144 183 231 302 6 296 276 262 253 289 324 288 300 321 330 334 293 255 285 305 314 316 319 326 321 322 320 313 298 252 231 223 222 206 180 196 244
218 216 222 227 237 246 128 171 218 306 346 314 300 284 279 295 324 324 289 299 318 323 305 273 265 303 317 317 315 317 324 331 333 335 341 330 313 258 193 154 159 156 152 195
224 233 240 232 249 355 188 243 288 313 295 302 298 290 283 288 283 280 284 288 290 279 261 261 266 291 316 322 318 310 318 330 343 348 360 1 27 55 106 141 153 165 163 191
223 234 241 253 259 269 263 267 279 284 292 304 298 284 246 270 281 278 275 277 283 271 261 257 244 246 294 323 331 319 312 318 356 16 11 15 38 43 47 106 156 171 172 223
235 217 241 255 267 275 254 253 268 291 301 301 296 275 257 260 264 267 268 265 271 275 261 246 240 249 280 311 324 324 324 320 355 19 23 19 34 31 32 43 34 6 29 9
228 230 241 255 261 266 271 265 267 273 274 273 266 266 262 249 252 259 256 257 261 261 253 247 251 256 269 289 310 315 306 295 319 349 3 13 41 39 13 35 42 57 41 40
Height
1521 1520 1522 1523 1523 1523 1524 1527 1529 1528 1529 1531 1530 1530 1531 1533 1534 1535 1536 1537 1538 1539 1540 1540 1541 1541 1542 1542 1543 1543 1544 1544 1544 1544 1544 1544 1544 1544 1544 1544 1543 1543 1542 1542
1520 1522 1523 1524 1525 1525 1525 1528 1528 1529 1529 1530 1529 1529 1528 1531 1532 1533 1534 1535 1536 1537 1538 1539 1539 1540 1540 1541 1541 1542 1543 1543 1543 1543 1543 1543 1544 1544 1543 1543 1543 1542 1542 1542
1520 1523 1525 1525 1526 1526 1526 1527 1528 1529 1530 1529 1529 1528 1526 1528 1530 1532 1533 1533 1534 1535 1536 1537 1538 1538 1539 1539 1540 1541 1541 1542 1542 1542 1542 1542 1543 1543 1543 1542 1542 1541 1541 1541
1522 1524 1525 1525 1526 1525 1527 1526 1527 1528 1529 1528 1529 1530 1523 1524 1526 1529 1530 1531 1532 1533 1534 1535 1536 1536 1537 1538 1539 1539 1540 1540 1541 1541 1541 1541 1541 1541 1541 1541 1541 1541 1540 1540
1523 1525 1525 1526 1526 1526 1526 1527 1527 1527 1527 1528 1527 1529 1521 1522 1525 1526 1528 1529 1530 1531 1532 1533 1534 1534 1535 1536 1537 1538 1538 1539 1539 1539 1539 1540 1540 1540 1540 1540 1540 1539 1539 1539
1524 1526 1526 1526 1527 1527 1528 1527 1527 1526 1526 1532 1526 1528 1524 1521 1523 1524 1526 1528 1529 1530 1531 1532 1532 1533 1533 1534 1534 1535 1536 1537 1537 1538 1538 1538 1538 1539 1539 1538 1538 1538 1537 1537
1524 1525 1526 1528 1527 1528 1526 1527 1530 1530 1530 1527 1525 1527 1525 1520 1523 1524 1525 1527 1528 1529 1529 1530 1530 1530 1531 1531 1532 1533 1534 1535 1536 1536 1537 1537 1537 1537 1537 1537 1537 1536 1536 1535
1525 1526 1525 1526 1525 1525 1524 1524 1531 1535 1531 1525 1525 1524 1520 1522 1524 1525 1526 1527 1527 1528 1528 1529 1529 1529 1529 1530 1530 1531 1532 1533 1534 1534 1535 1535 1535 1535 1535 1535 1535 1535 1534 1533
1523 1524 1525 1527 1527 1524 1525 1524 1523 1526 1526 1529 1519 1517 1518 1521 1523 1524 1525 1526 1526 1527 1527 1527 1527 1528 1528 1528 1529 1529 1530 1531 1532 1532 1533 1533 1534 1534 1533 1533 1533 1533 1532 1532
1522 1526 1525 1527 1527 1528 1525 1523 1526 1528 1532 1530 1522 1519 1517 1519 1521 1523 1524 1525 1526 1527 1527 1527 1527 1526 1526 1527 1527 1527 1528 1529 1529 1530 1530 1531 1531 1531 1532 1531 1531 1531 1530 1529
1523 1525 1526 1526 1525 1524 1527 1527 1525 1523 1524 1528 1526 1519 1514 1517 1520 1522 1524 1525 1526 1526 1526 1526 1525 1525 1525 1525 1526 1526 1526 1527 1527 1528 1528 1529 1529 1529 1529 1529 1529 1529 1528 1527
1524 1523 1523 1523 1524 1525 1524 1523 1524 1528 1525 1524 1524 1521 1515 1518 1520 1522 1523 1525 1525 1526 1526 1525 1524 1524 1524 1523 1523 1524 1524 1524 1525 1525 1526 1526 1527 1527 1527 1527 1527 1526 1526 1525
1525 1524 1525 1524 1527 1527 1525 1525 1525 1524 1523 1523 1525 1521 1517 1518 1520 1522 1523 1524 1524 1524 1524 1524 1523 1523 1522 1522 1522 1522 1522 1522 1523 1523 1524 1524 1524 1525 1525 1525 1524 1524 1524 1523
1526 1522 1523 1525 1519 1521 1524 1526 1526 1525 1523 1520 1518 1516 1516 1518 1520 1521 1523 1523 1523 1523 1523 1523 1522 1522 1521 1521 1521 1520 1520 1520 1520 1521 1521 1522 1522 1522 1522 1522 1522 1521 1521 1521
1524 1521 1520 1520 1521 1521 1521 1522 1523 1522 1519 1518 1513 1514 1513 1517 1520 1521 1522 1522 1522 1522 1522 1521 1521 1520 1520 1520 1519 1519 1519 1519 1518 1518 1519 1519 1520 1520 1519 1519 1519 1519 1519 1518
1523 1521 1520 1521 1521 1521 1521 1519 1518 1518 1517 1515 1515 1514 1514 1516 1518 1519 1520 1520 1520 1521 1521 1520 1520 1519 1518 1518 1517 1517 1517 1516 1516 1516 1516 1517 1517 1517 1517 1516 1516 1516 1516 1516
1522 1520 1521 1518 1519 1521 1518 1513 1513 1514 1514 1514 1514 1512 1514 1515 1517 1517 1518 1519 1519 1519 1519 1519 1518 1517 1517 1516 1515 1515 1514 1514 1514 1514 1514 1514 1514 1514 1514 1513 1513 1513 1513 1512
1520 1520 1519 1518 1521 1522 1510 1511 1512 1513 1512 1512 1511 1512 1513 1515 1516 1517 1517 1517 1517 1517 1517 1517 1516 1515 1515 1514 1514 1513 1512 1512 1512 1512 1512 1512 1511 1511 1511 1511 1511 1510 1510 1509
1519 1519 1519 1518 1517 1510 1510 1511 1512 1512 1510 1511 1511 1512 1513 1514 1514 1514 1515 1516 1516 1516 1515 1515 1514 1513 1513 1512 1511 1510 1510 1510 1509 1509 1509 1509 1509 1509 1508 1508 1508 1507 1507 1507
1519 1518 1517 1517 1518 1514 1507 1509 1512 1513 1509 1510 1510 1511 1512 1513 1511 1511 1513 1513 1514 1513 1513 1512 1511 1511 1510 1510 1509 1508 1507 1507 1507 1506 1506 1506 1506 1506 1506 1505 1505 1504 1504 1504
1516 1516 1515 1513 1512 1505 1507 1510 1512 1513 1508 1510 1510 1510 1510 1510 1510 1511 1511 1511 1511 1511 1511 1510 1510 1509 1508 1507 1507 1506 1505 1504 1504 1504 1503 1503 1503 1503 1503 1503 1502 1502 1501 1501
1508 1510 1510 1510 1511 1509 1509 1510 1509 1508 1508 1509 1509 1509 1509 1510 1510 1509 1509 1509 1509 1509 1509 1508 1508 1507 1507 1506 1505 1504 1503 1503 1502 1501 1501 1501 1501 1500 1500 1500 1500 1499 1499 1498
1507 1506 1505 1506 1506 1506 1508 1508 1508 1508 1508 1508 1508 1508 1508 1508 1508 1508 1508 1508 1508 1508 1507 1507 1506 1505 1505 1504 1503 1502 1502 1501 1500 1500 1499 1499 1498 1498 1498 1497 1497 1497 1497 1496
1507 1509 1507 1505 1503 1505 1506 1506 1507 1507 1507 1507 1506 1506 1506 1506 1507 1507 1506 1506 1506 1506 1505 1505 1504 1504 1503 1503 1501 1501 1500 1499 1499 1498 1497 1497 1496 1496 1496 1495 1495 1495 1494 1494
1504 1507 1505 1503 1503 1504 1504 1505 1505 1505 1505 1505 1505 1505 1505 1505 1505 1505 1504 1504 1504 1503 1503 1503 1502 1501 1501 1500 1500 1499 1499 1498 1497 1496 1496 1495 1495 1494 1494 1493 1493 1493 1492 1492
1503 1503 1502 1499 1500 1502 1501 1502 1502 1502 1502 1502 1502 1502 1503 1503 1502 1502 1502 1502 1502 1501 1501 1500 1500 1499 1499 1498 1498 1497 1497 1496 1495 1495 1494 1494 1493 1493 1492 1492 1491 1491 1491 1490